Change the Weather History Date:

Saturday, January 28, 2012

  Actual Average Record
Temperature  
Mean Temperature 30 °F -  
Max Temperature 33 °F 31 °F 57 °F (2002)
Min Temperature 28 °F 15 °F -16 °F (1963)
Degree Days  
Heating Degree Days 34    
Moisture  
Dew Point 26 °F    
Average Humidity 80    
Maximum Humidity 92    
Minimum Humidity 56    
Precipitation  
Precipitation 0.08 in - - ()
Sea Level Pressure  
Sea Level Pressure 29.94 in    
Wind  
Wind Speed 14 mph (SW)    
Max Wind Speed 28 mph    
Max Gust Speed 36 mph    
Visibility 5 miles    
Events Snow    
Averages and records for this station are not official NWS values.
T = Trace of Precipitation, MM = Missing Value Source: NWS Daily Summary

Daily Weather History Graph

Daily Weather History Graph

Search for Another Location

Airport or City:

Trip Planner

Search our weather history database for the weather conditions in past years. The results will help you decide how hot, cold, wet, or windy it might be!

Date:

Astronomy

Jan. 28, 2012 Rise Set
Actual Time 7:59 AM EST 5:53 PM EST
Civil Twilight 7:29 AM EST 6:23 PM EST
Nautical Twilight 6:55 AM EST 6:56 PM EST
Astronomical Twilight 6:23 AM EST 7:29 PM EST
Moon 10:15 AM EST (1/28) 11:46 PM EST (1/28)
Length of Visible Light 10h 53m
Length of Day
9h 54m
Waxing Crescent, 27% of the Moon is Illuminated
Jan 28
Waxing Crescent
Jan 30
First Quarter
Feb 7
Full
Feb 14
Last Quarter
Feb 21
New

Hourly Weather History & Observations

Time (EST) Temp. Windchill Dew Point Humidity Pressure Visibility Wind Dir Wind Speed Gust Speed Precip Events Conditions
12:43 AM 33.8 °F 24.3 °F 30.2 °F 87% 29.92 in 2.0 mi SW 13.8 mph - 0.00 in Snow Light Snow
12:53 AM 33.1 °F 24.9 °F 30.0 °F 89% 29.94 in 1.8 mi SSW 10.4 mph - 0.00 in Snow Light Snow
1:02 AM 33.8 °F 25.8 °F 30.2 °F 87% 29.91 in 1.2 mi SW 10.4 mph - 0.00 in Snow Light Snow
1:16 AM 33.8 °F 26.4 °F 30.2 °F 87% 29.90 in 1.2 mi SW 9.2 mph - 0.00 in Snow Light Snow
1:53 AM 33.1 °F 26.1 °F 30.9 °F 92% 29.91 in 1.8 mi SW 8.1 mph - 0.01 in Snow Light Snow
2:11 AM 33.8 °F 26.4 °F 30.2 °F 87% 29.89 in 2.0 mi SSW 9.2 mph - 0.00 in Snow Light Snow
2:21 AM 33.8 °F 24.8 °F 30.2 °F 87% 29.88 in 1.5 mi SSW 12.7 mph - 0.00 in Snow Light Snow
2:53 AM 33.1 °F 23.9 °F 30.9 °F 92% 29.89 in 1.5 mi SSW 12.7 mph - 0.01 in Snow Light Snow
3:12 AM 33.8 °F 24.8 °F 30.2 °F 87% 29.85 in 3.0 mi SSW 12.7 mph - 0.00 in Snow Light Snow
3:53 AM 33.1 °F 23.4 °F 30.9 °F 92% 29.87 in 3.0 mi SW 13.8 mph - 0.01 in Snow Light Snow
4:00 AM 33.8 °F 24.3 °F 30.2 °F 87% 29.84 in 2.0 mi SSW 13.8 mph - 0.00 in Snow Light Snow
4:08 AM 33.8 °F 24.8 °F 30.2 °F 87% 29.84 in 1.8 mi SSW 12.7 mph - 0.00 in Snow Light Snow
4:15 AM 33.8 °F 24.8 °F 30.2 °F 87% 29.84 in 2.0 mi SSW 12.7 mph - 0.00 in Snow Light Snow
4:39 AM 33.8 °F 24.8 °F 30.2 °F 87% 29.83 in 1.5 mi SW 12.7 mph - 0.00 in Snow Light Snow
4:53 AM 33.1 °F 23.4 °F 30.9 °F 92% 29.85 in 1.2 mi SW 13.8 mph - 0.01 in Snow Light Snow
5:53 AM 33.1 °F 23.4 °F 30.9 °F 92% 29.82 in 1.8 mi SW 13.8 mph - 0.01 in Snow Light Snow
6:53 AM 33.1 °F 23.0 °F 30.9 °F 92% 29.81 in 1.5 mi SW 15.0 mph - 0.02 in Snow Light Snow
7:21 AM 33.8 °F 23.2 °F 30.2 °F 87% 29.80 in 2.5 mi WSW 17.3 mph - 0.00 in Snow Light Snow
7:29 AM 33.8 °F 23.2 °F 30.2 °F 87% 29.81 in 3.0 mi WSW 17.3 mph 24.2 mph 0.00 in Snow Light Snow
7:53 AM 33.1 °F 22.6 °F 30.0 °F 89% 29.84 in 4.0 mi WSW 16.1 mph 24.2 mph 0.00 in Snow Light Snow
8:53 AM 32.0 °F 19.8 °F 28.9 °F 88% 29.86 in 3.0 mi WSW 20.7 mph - 0.00 in Snow Light Snow
9:53 AM 32.0 °F 19.8 °F 26.1 °F 79% 29.91 in 9.0 mi West 20.7 mph 32.2 mph 0.00 in   Overcast
10:11 AM 32.0 °F 18.9 °F 24.8 °F 75% 29.89 in 10.0 mi West 24.2 mph 29.9 mph N/A   Scattered Clouds
10:53 AM 30.9 °F 16.7 °F 24.1 °F 76% 29.96 in 10.0 mi West 27.6 mph 35.7 mph N/A   Scattered Clouds
11:53 AM 30.9 °F 19.1 °F 23.0 °F 72% 29.99 in 10.0 mi West 18.4 mph - N/A   Clear
12:53 PM 32.0 °F 18.6 °F 19.0 °F 59% 30.00 in 10.0 mi West 25.3 mph 31.1 mph N/A   Clear
1:53 PM 32.0 °F 20.5 °F 18.0 °F 56% 30.01 in 10.0 mi West 18.4 mph 27.6 mph 0.01 in   Clear
2:53 PM 32.0 °F 18.6 °F 19.0 °F 59% 30.04 in 10.0 mi West 25.3 mph 29.9 mph N/A   Clear
3:53 PM 30.9 °F 18.7 °F 19.0 °F 61% 30.07 in 10.0 mi West 19.6 mph 29.9 mph N/A   Clear
5:53 PM 28.9 °F 16.1 °F 18.0 °F 64% 30.13 in 10.0 mi WSW 19.6 mph 34.5 mph N/A   Clear
6:53 PM 28.9 °F 16.9 °F 18.0 °F 64% 30.14 in 10.0 mi WSW 17.3 mph - N/A   Clear
7:53 PM 28.9 °F 17.7 °F 17.1 °F 61% 30.15 in 10.0 mi SW 15.0 mph - N/A   Clear
8:53 PM 28.9 °F 17.3 °F 21.0 °F 72% 30.14 in 10.0 mi SW 16.1 mph - N/A   Clear
9:53 PM 28.9 °F 18.6 °F 21.0 °F 72% 30.14 in 10.0 mi SW 12.7 mph 23.0 mph N/A   Scattered Clouds
10:53 PM 30.9 °F 21.2 °F 21.0 °F 67% 30.13 in 10.0 mi SW 12.7 mph - N/A   Overcast
11:53 PM 28.9 °F 19.8 °F 21.0 °F 72% 30.12 in 10.0 mi SSW 10.4 mph - N/A   Overcast